Location: Buckeye Ditch
(40.9104°N, 122.9517°W)
Time: 19:44:46
(UTC+00:00)

Vanguard 1 - Pass Details

Date: 20 May 2025
Orbit: 649 x 3822 km, 34.3° (Epoch: 15 June)

Event Time Altitude Azimuth Distance (km) Brightness Sun altitude
Rises 06:43:42 0° 276° (W) 5,141 14.1 -25.9°
Reaches altitude 10° 06:48:16 10° 266° (W) 3,596 13.1 -26.3°
Enters shadow 06:53:53 26° 228° (SW) 2,015 11.4 -26.6°
